549  
ASUS45 KBOI 240510  
RWRID  
 
IDAHO REGIONAL WEATHER ROUNDUP  
NATIONAL WEATHER SERVICE BOISE ID  
1100 PM MDT SAT JUN 23 2018  
 
NOTE: "FAIR" INDICATES FEW OR NO CLOUDS BELOW 12000 FEET  
WITH NO SIGNIFICANT WEATHER AND/OR S TO VISIBILITY
 
 
IDZ012-014-240600-  
SOUTHWEST IDAHO  
 
 
CITY SKY/WX TMP DP RH WIND PRES REMARKS
 
BOISE CLEAR 69 44 40 NW12 29.99R  
CALDWELL CLEAR 69 44 40 W13 30.00R  
MOUNTAIN HOME CLEAR 66 40 38 NW13 29.99R  

 
 
IDZ016-017-240600-  
SOUTHCENTRAL IDAHO  
 
 
CITY SKY/WX TMP DP RH WIND PRES REMARKS
 
BURLEY CLEAR 63 39 41 W13 29.98R  
JEROME CLEAR 63 40 42 SW15 30.00R  
TWIN FALLS CLEAR 61 40 45 SW13 30.01R  

 
 
IDZ019>023-240600-  
SOUTHEAST IDAHO  
 
 
CITY SKY/WX TMP DP RH WIND PRES REMARKS
 
IDAHO FALLS PTCLDY 51 48 89 N3 30.08R  
POCATELLO MOCLDY 57 46 66 NE10 30.03R  
REXBURG PTCLDY 55 45 68 CALM 30.08R  

 
 
IDZ006-010-011-018-031-032-240600-  
CENTRAL IDAHO MOUNTAINS  
 
 
CITY SKY/WX TMP DP RH WIND PRES REMARKS
 
MCCALL CLEAR 58 43 57 NW9 30.12R  
HAILEY PTCLDY 55 43 62 NW6 30.06R  
STANLEY N/A 54 38 54 CALM 30.17R  
SALMON CLOUDY 58 46 64 NW3 30.11R  
CHALLIS CLOUDY 60 42 51 N8 30.11R  

 
 
IDZ002-004-006-007-026-240600-  
NORTHERN IDAHO  
 
 
CITY SKY/WX TMP DP RH WIND PRES REMARKS
 
LEWISTON PTCLDY 69 50 50 SE5 30.02R  
LOWELL N/A 62 58 86 CALM 30.06R  
COEUR D'ALENE CLEAR 63 56 78 E3 30.06R  
MULLAN PASS CLOUDY 48 43 82 CALM 30.17R  

 
 
 
CLICK HERE TO GO TO PREVIOUS BULLETINS.

The Nexlab ID Page Main Text Page